EW7806 Weather Reports


Display with metric or nautical units.
time (UTC)temp
F
wind
direction
speed
MPH
gust
MPH
rain 1hr
in
rain 24hr
in
rain mn
in
humidity
%
barometer
mb
20260903075027 68 157 1.0 9.0 0.00 0.09 0.06 88 1013.5
20260903074524 68 133 1.0 9.0 0.00 0.09 0.06 89 1013.6
20260903073519 67 117 1.0 10.0 0.00 0.09 0.06 89 1013.5
20260903073027 67 121 1.0 10.0 0.00 0.09 0.06 89 1013.4
20260903071510 67 120 0.0 1.0 0.00 0.09 0.06 90 1013.6
20260903070935 67 149 0.0 1.0 0.00 0.09 0.06 90 1013.5
20260903070410 66 66 0.0 2.0 0.00 0.09 0.06 90 1013.7
20260903065908 66 197 0.0 2.0 0.00 0.09 0.05 90 1013.7
20260903064911 66 101 0.0 0.0 0.00 0.09 0.05 90 1013.6
20260903064408 66 203 0.0 3.0 0.00 0.09 0.05 90 1013.5
20260903063909 66 259 0.0 3.0 0.00 0.09 0.05 91 1013.4
20260903063410 66 154 0.0 1.0 0.00 0.09 0.05 91 1013.3
20260903062910 66 184 0.0 6.0 0.01 0.09 0.05 91 1013.3
20260903062407 66 205 0.0 6.0 0.01 0.09 0.05 91 1013.4
20260903061909 66 176 0.0 0.0 0.01 0.09 0.05 91 1013.3
20260903061333 66 166 0.0 4.0 0.01 0.09 0.05 91 1013.3
20260903060309 66 140 0.0 1.0 0.01 0.09 0.06 90 1013.3
20260903055817 65 221 0.0 3.0 0.01 0.09 0.06 90 1013.3
20260903055310 65 257 0.0 3.0 0.01 0.09 0.06 90 1013.1
20260903054312 66 220 0.0 7.0 0.01 0.09 0.06 90 1013.3
20260903053810 66 203 0.0 7.0 0.01 0.09 0.06 90 1013.5
20260903053311 66 193 0.0 4.0 0.01 0.09 0.05 90 1013.3
20260903052822 66 176 0.0 4.0 0.00 0.09 0.05 90 1013.4
20260903052307 66 222 0.0 4.0 0.00 0.09 0.05 90 1013.3
20260903051806 66 216 0.0 0.0 0.00 0.09 0.05 90 1013.4
20260903051238 66 203 0.0 5.0 0.00 0.09 0.05 90 1013.4
20260903050733 66 175 0.0 5.0 0.00 0.09 0.05 90 1013.4
20260903045711 67 201 0.0 7.0 0.00 0.09 0.05 90 1013.5
20260903045212 67 203 1.0 7.0 0.00 0.09 0.05 90 1013.5
20260903044706 67 209 1.0 5.0 0.00 0.09 0.05 90 1013.5
20260903044156 67 206 1.0 7.0 0.00 0.09 0.05 90 1013.4
20260903043633 67 43 1.0 5.0 0.00 0.09 0.05 90 1013.2
20260903043134 67 189 1.0 5.0 0.00 0.09 0.05 90 1013.2
20260903042110 67 196 0.0 5.0 0.00 0.09 0.05 90 1013.2
20260903041108 67 70 1.0 7.0 0.00 0.09 0.05 90 1013.3
20260903040610 66 248 1.0 6.0 0.00 0.09 0.05 91 1013.4
20260903040122 66 177 1.0 8.0 0.00 0.09 0.05 91 1013.4
20260903035619 66 205 0.0 8.0 0.00 0.09 0.05 91 1013.4
20260903035109 66 190 1.0 4.0 0.00 0.09 0.05 91 1013.4
20260903034538 66 196 1.0 4.0 0.00 0.09 0.05 91 1013.5
20260903034054 66 240 1.0 5.0 0.00 0.09 0.05 91 1013.4
20260903033544 66 224 1.0 5.0 0.00 0.09 0.05 91 1013.5
20260903033033 66 253 1.0 6.0 0.00 0.09 0.05 91 1013.5
20260903032522 66 91 0.0 6.0 0.00 0.09 0.05 91 1013.5
20260903031524 66 41 0.0 3.0 0.00 0.09 0.05 91 1013.6
20260903031012 66 210 1.0 3.0 0.00 0.09 0.05 91 1013.8
20260903030521 66 330 1.0 5.0 0.00 0.09 0.05 91 1013.8
20260903030007 66 219 1.0 8.0 0.00 0.09 0.05 91 1013.9
20260903025503 66 202 0.0 8.0 0.00 0.09 0.05 91 1013.8
20260903025013 66 150 0.0 6.0 0.00 0.09 0.05 91 1014.0
20260903024505 66 172 0.0 6.0 0.00 0.09 0.05 91 1013.9
20260903023933 66 182 0.0 6.0 0.00 0.09 0.05 91 1013.9
20260903023438 66 234 0.0 3.0 0.00 0.09 0.05 91 1014.0
20260903022937 66 219 0.0 3.0 0.00 0.09 0.05 91 1014.0
20260903022434 66 221 0.0 2.0 0.00 0.09 0.05 91 1014.1
20260903021931 65 231 0.0 2.0 0.00 0.09 0.05 91 1014.2
20260903021405 65 214 0.0 2.0 0.00 0.09 0.05 91 1014.1
20260903020907 65 255 1.0 7.0 0.00 0.09 0.05 91 1014.2
20260903020405 65 59 1.0 7.0 0.00 0.09 0.05 91 1014.2
20260903015849 65 65 1.0 7.0 0.00 0.09 0.03 91 1014.2
20260903015333 65 232 0.0 7.0 0.01 0.09 0.03 91 1014.3
20260903014837 65 56 1.0 5.0 0.01 0.09 0.03 91 1014.3
20260903014308 65 82 1.0 10.0 0.01 0.09 0.03 91 1014.4
20260903013822 65 41 0.0 10.0 0.01 0.09 0.03 91 1014.5
20260903013234 65 183 0.0 2.0 0.01 0.09 0.03 91 1014.4
20260903012211 65 221 1.0 12.0 0.01 0.09 0.03 91 1014.5
20260903011711 65 232 1.0 10.0 0.01 0.09 0.03 91 1014.6
20260903010708 65 72 0.0 7.0 0.01 0.09 0.03 91 1014.5
20260903010214 65 219 1.0 2.0 0.01 0.09 0.05 91 1014.6
20260903005711 65 268 0.0 7.0 0.02 0.09 0.05 91 1014.7
20260903005208 65 251 1.0 7.0 0.01 0.08 0.04 91 1014.6
20260903004215 64 266 0.0 8.0 0.01 0.08 0.04 91 1014.9
20260903003716 64 233 1.0 8.0 0.02 0.08 0.04 91 1014.9
20260903003207 64 231 1.0 8.0 0.02 0.08 0.04 92 1015.1
20260903002708 64 44 1.0 8.0 0.02 0.08 0.04 92 1015.2
20260903002207 64 254 0.0 6.0 0.02 0.08 0.04 92 1015.2
20260903001712 62 42 0.0 2.0 0.02 0.08 0.04 91 1015.4
20260903001209 62 84 0.0 4.0 0.02 0.08 0.04 91 1015.4
20260903000726 62 75 0.0 4.0 0.02 0.08 0.04 91 1015.4
20260903000211 62 65 0.0 0.0 0.02 0.08 0.03 91 1015.4
20260902235708 62 91 0.0 2.0 0.02 0.07 0.02 91 1015.4
20260902234713 62 66 0.0 0.0 0.03 0.07 0.02 91 1015.5
20260902234209 62 106 0.0 5.0 0.03 0.07 0.02 91 1015.5
20260902233709 62 68 0.0 5.0 0.02 0.06 0.01 90 1015.6
20260902233215 62 74 0.0 1.0 0.02 0.06 0.01 90 1015.7
20260902232710 62 84 0.0 5.0 0.02 0.06 0.01 90 1015.7
20260902231711 62 87 0.0 4.0 0.02 0.06 0.00 90 1015.9
20260902231206 62 60 0.0 5.0 0.02 0.06 0.00 90 1016.0
20260902230217 62 68 0.0 1.0 0.02 0.06 0.02 90 1016.2
20260902225710 62 63 0.0 7.0 0.02 0.06 0.02 90 1016.2
20260902225210 62 72 1.0 7.0 0.02 0.06 0.00 90 1016.4
20260902224713 62 75 0.0 5.0 0.00 0.04 0.00 89 1016.4
20260902224209 62 70 0.0 5.0 0.01 0.04 0.00 90 1016.4
20260902223710 63 60 0.0 5.0 0.01 0.04 0.00 90 1016.4
20260902223209 63 73 0.0 5.0 0.01 0.04 0.00 90 1016.4
20260902222709 63 72 1.0 11.0 0.01 0.04 0.00 90 1016.5
20260902222212 63 65 2.0 11.0 0.01 0.04 0.00 90 1016.5
20260902221712 62 113 3.0 11.0 0.01 0.04 0.00 90 1016.6
20260902221212 62 67 1.0 11.0 0.01 0.04 0.00 90 1016.6
20260902220712 62 179 1.0 10.0 0.01 0.04 0.00 91 1016.7
20260902220211 61 73 0.0 2.0 0.02 0.04 0.00 91 1016.9
20260902215711 61 331 0.0 2.0 0.02 0.04 0.04 91 1016.9
20260902215210 61 72 0.0 2.0 0.02 0.04 0.04 91 1017.0
20260902214708 61 72 0.0 2.0 0.02 0.04 0.03 91 1017.1
20260902214206 61 85 0.0 0.0 0.02 0.03 0.03 91 1017.0
20260902213640 61 75 0.0 0.0 0.02 0.03 0.03 91 1017.1
20260902212108 61 82 0.0 1.0 0.02 0.03 0.03 91 1017.2
20260902211609 61 79 0.0 0.0 0.02 0.03 0.03 90 1017.2
20260902211109 61 67 0.0 9.0 0.02 0.03 0.03 90 1017.2
20260902210117 62 66 1.0 10.0 0.01 0.02 0.02 90 1017.6
20260902205611 62 249 1.0 10.0 0.00 0.02 0.00 89 1017.6
20260902205109 62 147 1.0 12.0 0.00 0.02 0.00 88 1017.5
20260902204037 63 255 0.0 7.0 0.01 0.02 0.00 86 1017.4
20260902203537 62 236 0.0 6.0 0.01 0.02 0.00 85 1017.3
20260902203034 62 255 1.0 6.0 0.01 0.02 0.00 86 1017.3
20260902202517 62 64 1.0 6.0 0.01 0.02 0.00 87 1017.4
20260902202039 62 72 0.0 4.0 0.02 0.02 0.00 90 1017.5
20260902201013 62 70 0.0 1.0 0.02 0.02 0.00 90 1017.5
20260902200504 62 78 0.0 1.0 0.02 0.02 0.00 90 1017.6
20260902195935 63 77 0.0 2.0 0.02 0.02 0.02 90 1017.6
20260902195436 63 114 0.0 2.0 0.02 0.02 0.02 89 1017.7
20260902194934 63 60 0.0 1.0 0.02 0.02 0.02 89 1017.7
20260902194433 63 79 0.0 0.0 0.02 0.02 0.01 89 1017.6
20260902193433 63 77 0.0 0.0 0.01 0.01 0.01 88 1017.7
20260902192911 63 77 0.0 2.0 0.01 0.01 0.01 88 1017.7
20260902191910 63 85 0.0 0.0 0.00 0.00 0.00 88 1017.8
20260902191410 63 85 0.0 0.0 0.00 0.00 0.00 88 1017.8
20260902190908 63 75 0.0 0.0 0.00 0.00 0.00 88 1017.9
20260902190410 63 74 0.0 0.0 0.00 0.00 0.00 88 1017.9
20260902185411 63 77 0.0 1.0 0.00 0.00 0.00 88 1017.8
20260902184915 63 60 0.0 1.0 0.00 0.00 0.00 88 1018.0
20260902184417 63 74 0.0 5.0 0.00 0.00 0.00 88 1018.0
20260902183414 63 65 1.0 3.0 0.00 0.00 0.00 88 1018.1
20260902182910 63 59 1.0 5.0 0.00 0.00 0.00 88 1018.1
20260902181910 63 63 0.0 0.0 0.00 0.00 0.00 87 1018.2
20260902180908 64 211 0.0 10.0 0.00 0.00 0.00 86 1018.3
20260902180412 66 56 0.0 7.0 0.00 0.00 0.00 83 1018.3
20260902174907 66 72 0.0 0.0 0.00 0.00 0.00 81 1018.1
20260902174421 66 32 0.0 6.0 0.00 0.00 0.00 81 1018.1
20260902173908 66 31 0.0 6.0 0.00 0.00 0.00 82 1018.0
20260902172834 66 72 0.0 1.0 0.00 0.00 0.00 82 1018.2
20260902171813 66 85 0.0 1.0 0.00 0.00 0.00 82 1018.2
20260902170807 66 216 0.0 4.0 0.00 0.00 0.00 81 1018.2
20260902170322 66 64 0.0 7.0 0.00 0.00 0.00 80 1018.2
20260902165811 66 189 0.0 7.0 0.00 0.00 0.00 79 1018.2
20260902165309 66 110 0.0 1.0 0.00 0.00 0.00 78 1018.2
20260902164810 67 224 1.0 7.0 0.00 0.00 0.00 78 1018.3
20260902164311 67 266 1.0 7.0 0.00 0.00 0.00 78 1018.2
20260902163314 67 233 0.0 0.0 0.00 0.00 0.00 81 1018.3
20260902162811 67 233 0.0 5.0 0.00 0.00 0.00 80 1018.3
20260902161809 67 123 1.0 6.0 0.00 0.00 0.00 79 1018.3
20260902161312 67 250 0.0 6.0 0.00 0.00 0.00 80 1018.4
20260902160740 67 233 0.0 2.0 0.00 0.00 0.00 81 1018.4
20260902160238 67 245 0.0 2.0 0.00 0.00 0.00 81 1018.4
20260902155729 67 68 0.0 0.0 0.00 0.00 0.00 82 1018.5
20260902155209 67 83 0.0 0.0 0.00 0.00 0.00 81 1018.6
20260902154708 67 104 0.0 0.0 0.00 0.00 0.00 80 1018.6
20260902153708 68 269 0.0 8.0 0.00 0.00 0.00 77 1018.6
20260902153209 68 181 0.0 5.0 0.00 0.00 0.00 78 1018.6
20260902151633 68 167 0.0 5.0 0.00 0.00 0.00 77 1018.8
20260902151109 68 172 0.0 5.0 0.00 0.00 0.00 77 1018.9
20260902145614 68 187 0.0 4.0 0.00 0.00 0.00 76 1018.9
20260902144628 68 184 0.0 5.0 0.00 0.00 0.00 74 1019.0
20260902144109 68 262 0.0 3.0 0.00 0.00 0.00 75 1019.0
20260902143105 68 250 1.0 5.0 0.00 0.00 0.00 74 1019.0
20260902142608 68 244 0.0 5.0 0.00 0.00 0.00 74 1019.0
20260902142107 68 353 0.0 5.0 0.00 0.00 0.00 75 1019.1
20260902141605 68 208 0.0 12.0 0.00 0.00 0.00 75 1019.0
20260902141100 68 179 0.0 12.0 0.00 0.00 0.00 74 1019.0
20260902140533 68 233 1.0 6.0 0.00 0.00 0.00 73 1019.0
20260902135521 68 156 0.0 6.0 0.00 0.00 0.00 74 1019.0
20260902135019 69 245 0.0 4.0 0.00 0.00 0.00 72 1019.0
20260902134030 68 242 1.0 8.0 0.00 0.00 0.00 72 1019.0
20260902133517 68 291 0.0 3.0 0.00 0.00 0.00 75 1019.0
20260902133018 68 42 0.0 6.0 0.00 0.00 0.00 74 1019.0
20260902132521 68 220 1.0 6.0 0.00 0.00 0.00 73 1019.0
20260902132012 68 217 0.0 6.0 0.00 0.00 0.00 72 1019.0
20260902131516 68 162 0.0 6.0 0.00 0.00 0.00 73 1018.9
20260902131021 68 169 0.0 3.0 0.00 0.00 0.00 72 1018.9
20260902130515 68 156 0.0 7.0 0.00 0.00 0.00 72 1019.0
20260902130014 68 207 0.0 7.0 0.00 0.00 0.00 71 1019.0
20260902125505 68 236 0.0 6.0 0.00 0.00 0.00 75 1019.0
20260902124940 68 247 0.0 0.0 0.00 0.00 0.00 75 1019.0
20260902124432 68 236 0.0 6.0 0.00 0.00 0.00 75 1019.0
20260902123914 68 224 0.0 6.0 0.00 0.00 0.00 73 1019.0
20260902123407 68 181 0.0 0.0 0.00 0.00 0.00 74 1019.0
20260902122908 68 230 0.0 4.0 0.00 0.00 0.00 74 1019.0
20260902122414 68 250 0.0 4.0 0.00 0.00 0.00 74 1019.0
20260902121911 68 245 0.0 0.0 0.00 0.00 0.00 77 1018.9
20260902120906 68 263 0.0 2.0 0.00 0.00 0.00 76 1019.0
20260902120409 68 262 0.0 0.0 0.00 0.00 0.00 77 1019.0
20260902115903 67 175 0.0 3.0 0.00 0.00 0.00 78 1019.0
20260902115334 67 268 0.0 3.0 0.00 0.00 0.00 77 1019.1
20260902114333 67 259 0.0 6.0 0.00 0.00 0.00 77 1019.2
20260902113809 68 240 0.0 6.0 0.00 0.00 0.00 76 1019.2
20260902113306 68 297 0.0 0.0 0.00 0.00 0.00 75 1019.2
20260902112806 68 227 0.0 5.0 0.00 0.00 0.00 76 1019.3
20260902112310 68 232 0.0 5.0 0.00 0.00 0.00 76 1019.2
20260902111739 69 183 0.0 1.0 0.00 0.00 0.00 73 1019.2
20260902111230 69 229 0.0 5.0 0.00 0.00 0.00 74 1019.2
20260902110713 69 244 0.0 5.0 0.00 0.00 0.00 73 1019.2
20260902110226 69 205 0.0 3.0 0.00 0.00 0.00 75 1019.2
20260902105640 69 211 0.0 3.0 0.00 0.00 0.00 74 1019.2
20260902105139 69 232 0.0 4.0 0.00 0.00 0.00 75 1019.2
20260902104648 69 235 0.0 4.0 0.00 0.00 0.00 75 1019.2
20260902104113 69 15 0.0 2.0 0.00 0.00 0.00 77 1019.2
20260902103623 69 231 0.0 2.0 0.00 0.00 0.00 74 1019.3
20260902103113 69 284 0.0 11.0 0.00 0.00 0.00 74 1019.3
20260902102107 68 266 0.0 3.0 0.00 0.00 0.00 75 1019.3
20260902101616 68 237 0.0 3.0 0.00 0.00 0.00 75 1019.1
20260902101108 68 238 0.0 3.0 0.00 0.00 0.00 74 1019.2
20260902100610 68 250 0.0 0.0 0.00 0.00 0.00 75 1019.1
20260902100111 68 249 0.0 4.0 0.00 0.00 0.00 75 1019.1
20260902095608 68 252 0.0 4.0 0.00 0.00 0.00 76 1019.0
20260902095113 68 304 0.0 1.0 0.00 0.00 0.00 77 1019.0
20260902094611 68 258 0.0 5.0 0.00 0.00 0.00 77 1019.0
20260902094110 68 248 0.0 5.0 0.00 0.00 0.00 76 1019.0
20260902093610 68 298 0.0 0.0 0.00 0.00 0.00 80 1018.9
20260902093108 68 252 0.0 4.0 0.00 0.00 0.00 80 1018.9
20260902092608 68 72 0.0 4.0 0.00 0.00 0.00 80 1019.0
20260902092112 68 231 0.0 5.0 0.00 0.00 0.00 79 1018.9
20260902091542 68 195 0.0 5.0 0.00 0.00 0.00 79 1018.9
20260902091048 68 305 0.0 1.0 0.00 0.00 0.00 79 1018.9
20260902090039 69 306 0.0 5.0 0.00 0.00 0.00 79 1018.8
20260902085521 69 227 0.0 3.0 0.00 0.00 0.00 80 1018.7
20260902085014 69 283 0.0 1.0 0.00 0.00 0.00 79 1018.7
20260902084026 69 198 0.0 1.0 0.00 0.00 0.00 76 1018.6
20260902083515 69 229 0.0 0.0 0.00 0.00 0.00 80 1018.5
20260902083027 69 242 0.0 2.0 0.00 0.00 0.00 79 1018.5
20260902082522 69 233 0.0 2.0 0.00 0.00 0.00 78 1018.5
20260902081525 69 71 0.0 5.0 0.00 0.00 0.00 79 1018.5
20260902080436 68 305 0.0 1.0 0.00 0.00 0.00 82 1018.4